Location: Cuzcurrita-R�o Tir�n
(42.5415°N, 2.9642°W)
Time: 11:00:26
(UTC+00:00)

BREEZE-M DEB (TANK) - Visible Passes

Search period start: 14 May 2021 00:00
Search period end: 24 May 2021 00:00
Orbit: 319 x 13765 km, 49.6° (Epoch: 13 May)

Date Brightness Start Highest point End Pass type
(mag) Time Alt. Az. Time Alt. Az. Time Alt. Az.
14 May 8.6 20:22:23 10° SSE 21:53:46 42° ESE 22:26:34 10° ENE visible
15 May 7.4 01:11:58 10° SW 02:43:34 80° NNW 02:57:47 10° ENE visible
15 May 8.3 22:06:54 10° SSW 23:55:02 68° SE 00:20:40 10° ENE visible
16 May 6.6 03:50:43 10° W 04:40:40 67° N 04:49:11 10° E visible
16 May 8.7 19:42:11 10° SSE 21:05:46 35° ESE 21:39:50 10° ENE visible
17 May 7.6 00:14:41 10° SW 01:56:01 86° NNW 02:12:46 10° ENE visible
17 May 8.5 21:19:12 10° S 23:06:05 61° SE 23:35:08 10° ENE visible
18 May 6.9 02:49:36 10° W 03:54:08 69° N 04:04:16 10° ENE visible
18 May 8.8 19:05:08 10° SE 20:18:17 28° ESE 20:52:14 10° ENE visible
18 May 7.9 23:20:02 10° SW 01:07:56 88° SE 01:27:37 10° ENE visible
19 May 8.5 20:33:16 10° S 22:17:02 55° ESE 22:49:20 10° ENE visible
20 May 7.2 01:47:19 10° WSW 03:07:12 73° NNW 03:19:16 10° ENE visible
20 May 8.9 18:32:16 10° SE 19:31:27 22° E 20:03:10 10° ENE visible
20 May 8.1 22:27:44 10° SSW 00:19:19 81° SE 00:42:20 10° ENE visible
21 May 6.2 04:25:31 10° WNW 05:03:27 71° N 05:10:33 10° E visible
21 May 8.6 19:49:10 10° SSE 21:28:08 48° ESE 22:03:10 10° ENE visible
22 May 7.4 00:46:16 10° WSW 02:19:49 77° NNW 02:34:10 10° ENE visible
22 May 8.3 21:37:28 10° SSW 23:30:13 74° SE 23:56:51 10° ENE visible
23 May 6.6 03:27:19 10° W 04:17:08 69° N 04:25:35 10° E visible
23 May 8.7 19:07:11 10° SSE 20:39:35 41° ESE 21:16:32 10° ENE visible
